Simultaneous Nadir Overpasses (SNOs) Predictions

Prediction of SNOs between GOES-14 and AQUA Satellite Orbit:

Table of predicted SNOs for the next 14.0 days since TLE Epoch: 8/22/2025
Index Date Time (GOES-14) GOES-14 Lat,Lon AQUA Lat,Lon Distance(km) Time Diff (sec)
1 08/23/2025 21:52:46 0.90,-108.13 1.34,-106.03 238.61 80
2 08/24/2025 10:14:32 -0.87,-108.16 -0.34,-110.64 282.67 80
3 08/26/2025 09:51:21 -0.89,-108.18 -1.43,-105.62 291.02 80
4 08/26/2025 22:13:15 0.86,-108.16 0.39,-110.26 239.24 80
5 08/28/2025 21:50:04 0.88,-108.18 1.52,-105.24 334.96 80
6 08/29/2025 10:11:49 -0.85,-108.22 -0.48,-109.84 185.54 80
7 08/31/2025 09:48:38 -0.88,-108.23 -1.64,-104.83 387.79 80
8 08/31/2025 22:10:31 0.84,-108.21 0.55,-109.46 142.95 80
9 09/02/2025 21:47:19 0.87,-108.22 1.68,-104.44 430.69 80
10 09/03/2025 10:09:03 -0.83,-108.26 -0.65,-109.04 89.12 80
11 09/05/2025 09:45:52 -0.87,-108.27 -1.80,-104.02 484.10 80
